Time,TemperatureF,DewpointF,PressureIn,WindDirection,WindDirectionDegrees,WindSpeedMPH,WindSpeedGustMPH,Humidity,HourlyPrecipIn,Conditions,Clouds,dailyrainin,SoftwareType,DateUTC
2013-05-23 00:14:00,62.2,55.0,29.89,North,355,0.0,0.0,78,0.00,,,0.00,weatherlink.com 1.10,2013-05-23 05:14:00,
2013-05-23 00:31:00,61.7,55.0,29.89,North,355,0.0,0.0,79,0.00,,,0.00,weatherlink.com 1.10,2013-05-23 05:31:00,
2013-05-23 00:50:00,61.5,55.0,29.89,North,355,0.0,0.0,79,0.00,,,0.00,weatherlink.com 1.10,2013-05-23 05:50:00,
2013-05-23 01:07:00,61.8,55.0,29.89,North,355,0.0,0.0,78,0.00,,,0.00,weatherlink.com 1.10,2013-05-23 06:07:00,
2013-05-23 01:25:00,61.9,55.0,29.89,North,355,0.0,0.0,77,0.00,,,0.00,weatherlink.com 1.10,2013-05-23 06:25:00,
2013-05-23 01:43:00,61.8,55.0,29.89,North,355,0.0,0.0,79,0.00,,,0.00,weatherlink.com 1.10,2013-05-23 06:43:00,
2013-05-23 02:00:00,61.5,55.0,29.89,North,355,0.0,0.0,79,0.00,,,0.00,weatherlink.com 1.10,2013-05-23 07:00:00,
2013-05-23 02:18:00,61.2,55.0,29.90,North,355,0.0,0.0,80,0.00,,,0.00,weatherlink.com 1.10,2013-05-23 07:18:00,
2013-05-23 02:36:00,61.1,55.0,29.90,North,355,0.0,0.0,81,0.00,,,0.00,weatherlink.com 1.10,2013-05-23 07:36:00,
2013-05-23 02:54:00,61.1,55.0,29.90,North,355,0.0,0.0,81,0.00,,,0.00,weatherlink.com 1.10,2013-05-23 07:54:00,
2013-05-23 03:12:00,61.1,55.0,29.90,North,355,0.0,0.0,81,0.00,,,0.00,weatherlink.com 1.10,2013-05-23 08:12:00,
2013-05-23 03:30:00,61.1,55.0,29.90,North,355,0.0,0.0,81,0.00,,,0.00,weatherlink.com 1.10,2013-05-23 08:30:00,
2013-05-23 03:47:00,61.0,56.0,29.91,North,355,0.0,0.0,82,0.00,,,0.00,weatherlink.com 1.10,2013-05-23 08:47:00,
2013-05-23 04:05:00,60.9,55.0,29.91,North,355,0.0,0.0,82,0.00,,,0.00,weatherlink.com 1.10,2013-05-23 09:05:00,
2013-05-23 04:23:00,60.8,56.0,29.91,North,355,0.0,0.0,83,0.00,,,0.00,weatherlink.com 1.10,2013-05-23 09:23:00,
2013-05-23 04:40:00,60.8,55.0,29.91,North,355,0.0,1.0,82,0.00,,,0.00,weatherlink.com 1.10,2013-05-23 09:40:00,
2013-05-23 04:59:00,61.0,54.0,29.91,NNE,15,0.0,2.0,79,0.00,,,0.00,weatherlink.com 1.10,2013-05-23 09:59:00,
2013-05-23 05:16:00,61.1,54.0,29.92,NE,36,0.0,2.0,78,0.00,,,0.00,weatherlink.com 1.10,2013-05-23 10:16:00,
2013-05-23 05:34:00,61.1,54.0,29.93,NNE,14,0.0,8.0,76,0.00,,,0.00,weatherlink.com 1.10,2013-05-23 10:34:00,
2013-05-23 05:52:00,60.9,53.0,29.93,North,11,0.0,3.0,76,0.00,,,0.00,weatherlink.com 1.10,2013-05-23 10:52:00,
2013-05-23 06:10:00,60.7,54.0,29.94,West,263,0.0,2.0,78,0.00,,,0.00,weatherlink.com 1.10,2013-05-23 11:10:00,
2013-05-23 06:27:00,60.2,53.0,29.95,NNW,348,0.0,2.0,77,0.00,,,0.00,weatherlink.com 1.10,2013-05-23 11:27:00,
2013-05-23 06:46:00,60.0,53.0,29.96,NE,44,0.0,2.0,77,0.00,,,0.00,weatherlink.com 1.10,2013-05-23 11:46:00,
2013-05-23 07:03:00,59.9,52.0,29.96,WNW,292,0.0,6.0,76,0.00,,,0.00,weatherlink.com 1.10,2013-05-23 12:03:00,
2013-05-23 07:20:00,60.1,52.0,29.97,SW,217,0.0,6.0,75,0.00,,,0.00,weatherlink.com 1.10,2013-05-23 12:20:00,
2013-05-23 07:39:00,60.2,52.0,29.97,ENE,63,0.0,4.0,74,0.00,,,0.00,weatherlink.com 1.10,2013-05-23 12:39:00,
2013-05-23 07:56:00,60.2,52.0,29.98,WNW,293,1.0,5.0,75,0.00,,,0.00,weatherlink.com 1.10,2013-05-23 12:56:00,
2013-05-23 08:15:00,60.3,52.0,29.99,SW,236,0.0,3.0,74,0.00,,,0.00,weatherlink.com 1.10,2013-05-23 13:15:00,
2013-05-23 08:32:00,59.9,51.0,29.99,NNW,336,1.0,4.0,72,0.00,,,0.00,weatherlink.com 1.10,2013-05-23 13:32:00,
2013-05-23 08:49:00,60.5,51.0,30.00,NW,326,1.0,6.0,72,0.00,,,0.00,weatherlink.com 1.10,2013-05-23 13:49:00,
2013-05-23 09:08:00,60.7,51.0,30.00,North,9,0.0,5.0,71,0.00,,,0.00,weatherlink.com 1.10,2013-05-23 14:08:00,
2013-05-23 09:25:00,61.1,52.0,30.01,North,355,0.0,6.0,73,0.00,,,0.00,weatherlink.com 1.10,2013-05-23 14:25:00,
2013-05-23 09:43:00,61.6,53.0,30.02,WNW,287,0.0,4.0,74,0.00,,,0.00,weatherlink.com 1.10,2013-05-23 14:43:00,
2013-05-23 10:01:00,61.9,54.0,30.02,NNE,23,0.0,5.0,74,0.00,,,0.00,weatherlink.com 1.10,2013-05-23 15:01:00,
2013-05-23 10:19:00,61.7,54.0,30.02,WNW,299,0.0,7.0,75,0.00,,,0.00,weatherlink.com 1.10,2013-05-23 15:19:00,
2013-05-23 10:36:00,61.6,54.0,30.01,WNW,286,0.0,5.0,76,0.00,,,0.00,weatherlink.com 1.10,2013-05-23 15:36:00,
2013-05-23 10:55:00,62.6,55.0,30.02,NW,320,0.0,8.0,75,0.00,,,0.00,weatherlink.com 1.10,2013-05-23 15:55:00,
2013-05-23 11:53:00,62.1,55.0,30.06,North,9,1.0,4.0,77,0.00,,,0.00,weatherlink.com 1.10,2013-05-23 16:53:00,
2013-05-23 12:16:00,62.1,56.0,30.08,North,360,0.0,6.0,79,0.00,,,0.00,weatherlink.com 1.10,2013-05-23 17:16:00,
2013-05-23 12:33:00,62.0,55.0,30.08,NE,53,0.0,4.0,78,0.00,,,0.00,weatherlink.com 1.10,2013-05-23 17:33:00,
2013-05-23 12:51:00,62.1,56.0,30.08,NNW,338,0.0,4.0,79,0.00,,,0.00,weatherlink.com 1.10,2013-05-23 17:51:00,
2013-05-23 13:09:00,62.4,56.0,30.08,NNE,28,0.0,3.0,79,0.00,,,0.00,weatherlink.com 1.10,2013-05-23 18:09:00,
2013-05-23 13:26:00,62.8,56.0,30.08,NNE,20,0.0,6.0,79,0.00,,,0.00,weatherlink.com 1.10,2013-05-23 18:26:00,
2013-05-23 13:45:00,63.0,56.0,30.09,North,5,0.0,6.0,78,0.00,,,0.00,weatherlink.com 1.10,2013-05-23 18:45:00,
2013-05-23 14:02:00,62.9,56.0,30.09,West,275,0.0,6.0,79,0.00,,,0.00,weatherlink.com 1.10,2013-05-23 19:02:00,
2013-05-23 14:20:00,63.4,57.0,30.09,North,355,3.0,8.0,79,0.00,,,0.00,weatherlink.com 1.10,2013-05-23 19:20:00,
2013-05-23 14:38:00,64.7,58.0,30.09,NNW,348,1.0,8.0,79,0.00,,,0.00,weatherlink.com 1.10,2013-05-23 19:38:00,
2013-05-23 14:55:00,64.7,57.0,30.10,North,351,1.0,4.0,77,0.00,,,0.00,weatherlink.com 1.10,2013-05-23 19:55:00,
2013-05-23 15:14:00,62.7,59.0,30.12,NNE,30,0.0,4.0,86,0.00,,,0.00,weatherlink.com 1.10,2013-05-23 20:14:00,
2013-05-23 15:31:00,61.6,59.0,30.12,North,5,0.0,3.0,90,0.00,,,0.00,weatherlink.com 1.10,2013-05-23 20:31:00,
2013-05-23 15:50:00,61.6,60.0,30.12,NNW,340,0.0,2.0,93,0.00,,,0.00,weatherlink.com 1.10,2013-05-23 20:50:00,
2013-05-23 16:07:00,62.9,61.0,30.12,NE,53,0.0,3.0,93,0.00,,,0.00,weatherlink.com 1.10,2013-05-23 21:07:00,
2013-05-23 16:24:00,62.6,59.0,30.12,NNE,20,0.0,3.0,89,0.00,,,0.00,weatherlink.com 1.10,2013-05-23 21:24:00,
2013-05-23 16:43:00,62.8,59.0,30.12,NNE,16,0.0,5.0,86,0.00,,,0.00,weatherlink.com 1.10,2013-05-23 21:43:00,
2013-05-23 17:00:00,62.7,59.0,30.14,NW,316,0.0,3.0,86,0.00,,,0.00,weatherlink.com 1.10,2013-05-23 22:00:00,
2013-05-23 17:18:00,62.0,59.0,30.14,NNW,333,0.0,2.0,88,0.00,,,0.00,weatherlink.com 1.10,2013-05-23 22:18:00,
2013-05-23 17:36:00,61.2,57.0,30.16,NNW,346,0.0,2.0,87,0.00,,,0.00,weatherlink.com 1.10,2013-05-23 22:36:00,
2013-05-23 17:54:00,60.0,57.0,30.16,NNW,346,0.0,1.0,89,0.00,,,0.00,weatherlink.com 1.10,2013-05-23 22:54:00,
2013-05-23 18:11:00,60.4,58.0,30.15,NNW,346,0.0,0.0,91,0.01,,,0.01,weatherlink.com 1.10,2013-05-23 23:11:00,
2013-05-23 18:30:00,60.9,58.0,30.16,NNW,346,0.0,1.0,90,0.01,,,0.01,weatherlink.com 1.10,2013-05-23 23:30:00,
2013-05-23 18:47:00,61.2,58.0,30.16,NNW,347,1.0,1.0,88,0.01,,,0.01,weatherlink.com 1.10,2013-05-23 23:47:00,
2013-05-23 19:04:00,61.5,58.0,30.17,NNW,342,0.0,2.0,87,0.00,,,0.01,weatherlink.com 1.10,2013-05-24 00:04:00,
2013-05-23 19:23:00,61.6,57.0,30.17,NNW,342,0.0,0.0,86,0.00,,,0.01,weatherlink.com 1.10,2013-05-24 00:23:00,
2013-05-23 19:40:00,61.6,57.0,30.18,NNW,342,0.0,0.0,84,0.00,,,0.01,weatherlink.com 1.10,2013-05-24 00:40:00,
2013-05-23 19:58:00,61.4,57.0,30.18,NNW,342,0.0,0.0,84,0.00,,,0.01,weatherlink.com 1.10,2013-05-24 00:58:00,
2013-05-23 20:16:00,61.2,56.0,30.18,NNW,342,0.0,0.0,84,0.00,,,0.01,weatherlink.com 1.10,2013-05-24 01:16:00,
2013-05-23 20:34:00,60.9,56.0,30.18,NNW,342,0.0,0.0,85,0.00,,,0.01,weatherlink.com 1.10,2013-05-24 01:34:00,
2013-05-23 20:52:00,60.3,56.0,30.18,NNW,342,0.0,0.0,86,0.00,,,0.01,weatherlink.com 1.10,2013-05-24 01:52:00,
2013-05-23 21:09:00,59.4,55.0,30.18,NNW,342,0.0,0.0,86,0.00,,,0.01,weatherlink.com 1.10,2013-05-24 02:09:00,
2013-05-23 21:27:00,58.6,55.0,30.19,NNW,342,0.0,0.0,87,0.00,,,0.01,weatherlink.com 1.10,2013-05-24 02:27:00,
2013-05-23 21:46:00,57.9,54.0,30.19,NNW,342,0.0,0.0,88,0.00,,,0.01,weatherlink.com 1.10,2013-05-24 02:46:00,
2013-05-23 22:03:00,57.4,54.0,30.20,NNW,342,0.0,0.0,89,0.00,,,0.01,weatherlink.com 1.10,2013-05-24 03:03:00,
2013-05-23 22:21:00,57.0,54.0,30.21,NNW,342,0.0,0.0,90,0.00,,,0.01,weatherlink.com 1.10,2013-05-24 03:21:00,
2013-05-23 22:38:00,56.7,54.0,30.23,NNW,342,0.0,0.0,91,0.00,,,0.01,weatherlink.com 1.10,2013-05-24 03:38:00,
2013-05-23 22:57:00,56.1,54.0,30.23,NNW,342,0.0,0.0,92,0.00,,,0.01,weatherlink.com 1.10,2013-05-24 03:57:00,
2013-05-23 23:14:00,56.0,54.0,30.24,NNW,342,0.0,0.0,91,0.00,,,0.01,weatherlink.com 1.10,2013-05-24 04:14:00,
2013-05-23 23:32:00,55.8,53.0,30.24,NNW,342,0.0,0.0,90,0.00,,,0.01,weatherlink.com 1.10,2013-05-24 04:32:00,
2013-05-23 23:50:00,55.2,52.0,30.24,NNW,342,0.0,0.0,90,0.00,,,0.01,weatherlink.com 1.10,2013-05-24 04:50:00,